Regional Weather Roundup
Issued by NWS Charleston, WV

Home | Current Version | Previous Version | Graphics & Text | Print | Product List | Glossary On
Versions: 1 2 3 4 5 6 7 8 9 10 11 12 13 14 15 16 17 18 19 20 21 22 23 24 25 26 27 28 29 30 31 32 33 34 35 36 37 38 39 40 41 42 43 44 45 46 47
000
ASUS41 KRLX 220210
RWRRLX
West Virginia Regional Weather Roundup
National Weather Service Charleston WV
1000 PM EDT SAT OCT 21 2017

Note: "fair" indicates few or no clouds below 12,000 feet with no
significant weather and/or obstructions to visibility.

WVZ003-220300-
Northern Panhandle of West Virginia

CITY           SKY/WX    TMP DP  RH WIND       PRES   REMARKS
WHEELING       CLOUDY    63  49  60 SE5       30.28R
$$

WVZ009-220300-
Northwest West Virginia

CITY           SKY/WX    TMP DP  RH WIND       PRES   REMARKS
PARKERSBURG    PTCLDY    57  55  93 CALM      30.29S
$$

WVZ006-220300-
Western West Virginia

CITY           SKY/WX    TMP DP  RH WIND       PRES   REMARKS
HUNTINGTON     PTCLDY    57  53  86 CALM      30.24F
$$

WVZ015-220300-
West Central West Virginia

CITY           SKY/WX    TMP DP  RH WIND       PRES   REMARKS
CHARLESTON     PTCLDY    58  53  84 CALM      30.27R
$$

WVZ022-031-220300-
North Central West Virginia

CITY           SKY/WX    TMP DP  RH WIND       PRES   REMARKS
CLARKSBURG     PTCLDY    60  51  72 CALM      30.29S
MORGANTOWN     PTCLDY    64  50  60 SE6       30.31R
$$

WVZ025-035-042-045-220300-
Southern West Virginia

CITY           SKY/WX    TMP DP  RH WIND       PRES   REMARKS
BECKLEY        CLOUDY    62  48  60 SE9       30.34S
LOGAN            N/A     64  48  55 CALM      30.28S
BLUEFIELD      CLOUDY    61  45  55 SE7       30.37R
LEWISBURG      CLOUDY    61  50  67 CALM      30.37R
$$

WVZ047-220300-
Northern Mountains of West Virginia

CITY           SKY/WX    TMP DP  RH WIND       PRES   REMARKS
ELKINS         PTCLDY    51  46  83 CALM      30.34R
$$

WVZ052-220300-
Eastern Panhandle of West Virginia

CITY           SKY/WX    TMP DP  RH WIND       PRES   REMARKS
MARTINSBURG    PTCLDY    54  48  80 CALM      30.34S
PETERSBURG     PTCLDY    54  51  89 CALM      30.34S
$$




USA.gov is the U.S. government's official web portal to all federal, state and local government web resources and services.